TimeCDT,TemperatureF,Dew PointF,Humidity,Sea Level PressureIn,VisibilityMPH,Wind Direction,Wind SpeedMPH,Gust SpeedMPH,PrecipitationIn,Events,Conditions,WindDirDegrees,DateUTC
12:13 AM,62.6,62.6,100,29.87,7.0,ENE,18.4,31.1,0.10,Rain-Thunderstorm,Heavy Thunderstorms and Rain,60,2013-06-21 05:13:00
12:33 AM,62.6,62.6,100,29.84,10.0,East,19.6,39.1,0.16,Rain-Thunderstorm,Thunderstorms and Rain,90,2013-06-21 05:33:00
12:53 AM,62.6,62.6,100,29.90,10.0,ENE,15.0,31.1,0.17,Rain-Thunderstorm,Light Thunderstorms and Rain,60,2013-06-21 05:53:00
1:13 AM,62.6,62.6,100,29.96,5.0,NE,12.7,23.0,0.07,Rain-Thunderstorm,Thunderstorms and Rain,40,2013-06-21 06:13:00
1:33 AM,62.6,62.6,100,29.79,7.0,ENE,36.8,50.6,0.11,Rain-Thunderstorm,Light Thunderstorms and Rain,70,2013-06-21 06:33:00
1:53 AM,64.4,62.6,94,29.74,10.0,East,34.5,48.3,0.13,Rain,Light Rain,80,2013-06-21 06:53:00
2:13 AM,66.2,60.8,83,29.78,10.0,ENE,31.1,49.5,N/A,,Clear,70,2013-06-21 07:13:00
2:33 AM,66.2,59.0,78,29.78,10.0,East,26.5,39.1,N/A,,Clear,80,2013-06-21 07:33:00
2:53 AM,66.2,60.8,83,29.80,10.0,East,12.7,27.6,N/A,,Clear,90,2013-06-21 07:53:00
3:13 AM,68.0,59.0,73,29.82,10.0,East,18.4,28.8,N/A,,Scattered Clouds,80,2013-06-21 08:13:00
3:33 AM,66.2,59.0,78,29.83,10.0,ENE,11.5,18.4,N/A,,Overcast,60,2013-06-21 08:33:00
3:53 AM,66.2,57.2,73,29.82,10.0,East,10.4,16.1,N/A,,Mostly Cloudy,80,2013-06-21 08:53:00
4:14 AM,66.2,57.2,73,29.82,10.0,East,11.5,19.6,N/A,,Mostly Cloudy,80,2013-06-21 09:14:00
4:33 AM,66.2,57.2,73,29.82,10.0,East,9.2,-,N/A,,Scattered Clouds,90,2013-06-21 09:33:00
4:53 AM,66.2,57.2,73,29.83,10.0,ESE,3.5,-,N/A,,Mostly Cloudy,110,2013-06-21 09:53:00
5:14 AM,64.4,57.2,77,29.86,10.0,Calm,Calm,-,N/A,,Scattered Clouds,0,2013-06-21 10:14:00
5:33 AM,62.6,59.0,88,29.86,10.0,West,5.8,-,N/A,,Clear,270,2013-06-21 10:33:00
5:53 AM,60.8,59.0,94,29.87,10.0,West,3.5,-,N/A,,Clear,280,2013-06-21 10:53:00
6:14 AM,60.8,59.0,94,29.89,10.0,NNW,8.1,-,N/A,,Clear,340,2013-06-21 11:14:00
6:33 AM,62.6,60.8,94,29.90,10.0,NNW,6.9,-,N/A,,Clear,340,2013-06-21 11:33:00
6:53 AM,62.6,60.8,94,29.89,10.0,North,3.5,-,N/A,,Clear,350,2013-06-21 11:53:00
7:14 AM,64.4,60.8,88,29.89,10.0,Calm,Calm,-,N/A,,Clear,0,2013-06-21 12:14:00
7:33 AM,64.4,60.8,88,29.90,10.0,Calm,Calm,-,N/A,,Clear,0,2013-06-21 12:33:00
7:53 AM,66.2,60.8,83,29.90,10.0,Calm,Calm,-,N/A,,Clear,0,2013-06-21 12:53:00
8:13 AM,66.2,60.8,83,29.90,10.0,ENE,5.8,-,N/A,,Clear,60,2013-06-21 13:13:00
8:33 AM,66.2,60.8,83,29.88,10.0,ENE,4.6,-,N/A,,Clear,70,2013-06-21 13:33:00
8:53 AM,69.8,60.8,73,29.89,10.0,ENE,5.8,-,N/A,,Clear,70,2013-06-21 13:53:00
9:14 AM,69.8,60.8,73,29.90,10.0,Calm,Calm,-,N/A,,Clear,0,2013-06-21 14:14:00
9:33 AM,69.8,60.8,73,29.90,10.0,ESE,6.9,-,N/A,,Clear,110,2013-06-21 14:33:00
9:53 AM,71.6,60.8,69,29.91,10.0,ESE,4.6,-,N/A,,Clear,110,2013-06-21 14:53:00
10:13 AM,71.6,59.0,64,29.91,10.0,East,6.9,-,N/A,,Clear,100,2013-06-21 15:13:00
10:33 AM,73.4,59.0,61,29.92,10.0,ESE,10.4,-,N/A,,Clear,110,2013-06-21 15:33:00
10:53 AM,73.4,59.0,61,29.92,10.0,ESE,8.1,-,N/A,,Clear,110,2013-06-21 15:53:00
11:13 AM,73.4,59.0,61,29.92,10.0,ESE,10.4,17.3,N/A,,Clear,120,2013-06-21 16:13:00
11:33 AM,75.2,57.2,53,29.91,10.0,ESE,10.4,-,N/A,,Clear,110,2013-06-21 16:33:00
11:53 AM,75.2,59.0,57,29.91,10.0,ESE,9.2,-,N/A,,Clear,110,2013-06-21 16:53:00
12:13 PM,75.2,60.8,61,29.90,10.0,East,8.1,-,N/A,,Clear,100,2013-06-21 17:13:00
12:33 PM,75.2,59.0,57,29.89,10.0,East,11.5,-,N/A,,Clear,80,2013-06-21 17:33:00
12:53 PM,75.2,59.0,57,29.90,10.0,East,6.9,-,N/A,,Clear,100,2013-06-21 17:53:00
1:13 PM,77.0,60.8,57,29.90,10.0,ESE,6.9,-,N/A,,Clear,120,2013-06-21 18:13:00
1:33 PM,77.0,60.8,57,29.91,10.0,ESE,8.1,-,N/A,,Clear,120,2013-06-21 18:33:00
1:53 PM,77.0,60.8,57,29.92,10.0,ESE,8.1,-,N/A,,Clear,120,2013-06-21 18:53:00
2:13 PM,77.0,60.8,57,29.91,10.0,East,4.6,-,N/A,,Clear,80,2013-06-21 19:13:00
2:33 PM,78.8,60.8,54,29.92,10.0,ESE,6.9,-,N/A,,Clear,120,2013-06-21 19:33:00
2:53 PM,78.8,60.8,54,29.93,10.0,Calm,Calm,-,N/A,,Clear,0,2013-06-21 19:53:00
3:13 PM,78.8,60.8,54,29.91,10.0,SE,6.9,-,N/A,,Clear,130,2013-06-21 20:13:00
3:33 PM,75.2,62.6,65,29.94,10.0,SSE,4.6,-,N/A,,Clear,160,2013-06-21 20:33:00
3:53 PM,75.2,62.6,65,29.93,10.0,Calm,Calm,-,N/A,,Clear,0,2013-06-21 20:53:00
4:13 PM,75.2,62.6,65,29.95,10.0,Calm,Calm,-,N/A,,Clear,0,2013-06-21 21:13:00
4:34 PM,73.4,64.4,73,29.95,10.0,Calm,Calm,-,N/A,,Clear,0,2013-06-21 21:34:00
4:53 PM,71.6,64.4,78,29.95,10.0,Calm,Calm,-,N/A,Thunderstorm,Clear,0,2013-06-21 21:53:00
5:13 PM,73.4,62.6,69,29.94,10.0,North,4.6,-,N/A,,Clear,10,2013-06-21 22:13:00
5:34 PM,71.6,64.4,78,29.97,10.0,NW,4.6,-,N/A,Rain,Light Rain,320,2013-06-21 22:34:00
5:53 PM,71.6,66.2,83,29.99,10.0,West,6.9,-,N/A,Rain,Rain,280,2013-06-21 22:53:00
6:13 PM,69.8,66.2,88,30.03,10.0,West,11.5,-,0.02,Rain-Thunderstorm,Thunderstorms and Rain,260,2013-06-21 23:13:00
6:34 PM,69.8,66.2,88,30.03,10.0,West,10.4,-,0.06,Rain,Rain,260,2013-06-21 23:34:00
6:53 PM,68.0,66.2,94,30.02,10.0,WSW,8.1,-,0.10,Rain-Thunderstorm,Light Thunderstorms and Rain,240,2013-06-21 23:53:00
7:13 PM,68.0,66.2,94,30.00,10.0,South,5.8,-,0.02,Rain,Light Rain,180,2013-06-22 00:13:00
7:34 PM,66.2,66.2,100,29.99,10.0,South,5.8,-,0.07,Rain-Thunderstorm,Rain,190,2013-06-22 00:34:00
7:53 PM,66.2,66.2,100,29.96,10.0,ESE,8.1,-,0.09,Rain-Thunderstorm,Light Thunderstorms and Rain,120,2013-06-22 00:53:00
8:13 PM,66.2,66.2,100,29.82,10.0,East,16.1,27.6,0.02,Rain,Light Rain,90,2013-06-22 01:13:00
8:34 PM,69.8,62.6,78,29.80,10.0,East,15.0,31.1,0.03,,Scattered Clouds,80,2013-06-22 01:34:00
8:53 PM,69.8,62.6,78,29.77,10.0,East,16.1,28.8,0.03,,Clear,90,2013-06-22 01:53:00
9:13 PM,69.8,60.8,73,29.77,10.0,East,17.3,27.6,N/A,,Clear,90,2013-06-22 02:13:00
9:33 PM,69.8,62.6,78,29.78,10.0,East,11.5,26.5,N/A,,Clear,90,2013-06-22 02:33:00
9:53 PM,69.8,62.6,78,29.81,10.0,East,10.4,19.6,N/A,,Clear,80,2013-06-22 02:53:00
10:13 PM,69.8,64.4,83,29.84,10.0,East,8.1,-,N/A,,Clear,80,2013-06-22 03:13:00
10:33 PM,69.8,64.4,83,29.86,10.0,Calm,Calm,-,N/A,,Clear,0,2013-06-22 03:33:00
10:53 PM,68.0,64.4,88,29.91,10.0,SSW,13.8,26.5,N/A,,Scattered Clouds,210,2013-06-22 03:53:00
11:13 PM,69.8,62.6,78,29.93,10.0,SW,5.8,-,N/A,,Mostly Cloudy,230,2013-06-22 04:13:00
11:33 PM,68.0,62.6,83,29.91,10.0,Calm,Calm,-,N/A,,Overcast,0,2013-06-22 04:33:00
11:53 PM,68.0,62.6,83,29.91,10.0,Calm,Calm,-,N/A,,Overcast,0,2013-06-22 04:53:00